,,PressureMeas_1m,,PRMeasQMR101_1,,RHStat155_1m_1,,SRMeasQMS101R_1m,,TAStat155_1m_1,,GenWind_1,,GenWind_1,
2019-04-24, 00:00:06,VALID,917.435,VALID,0.0,VALID,99.373,VALID,-0.002,VALID,20.738,VALID,112.0,VALID,0.0,
2019-04-24, 00:01:06,VALID,917.428,VALID,0.0,VALID,99.374,VALID,0.008,VALID,20.736,VALID,106.0,VALID,0.0,
2019-04-24, 00:02:06,VALID,917.418,VALID,0.0,VALID,99.381,VALID,-0.015,VALID,20.754,VALID,114.0,VALID,0.0,
2019-04-24, 00:03:06,VALID,917.41,VALID,0.0,VALID,99.417,VALID,-0.015,VALID,20.777,VALID,107.0,VALID,0.0,
2019-04-24, 00:04:06,VALID,917.375,VALID,0.0,VALID,99.385,VALID,-0.015,VALID,20.772,VALID,90.0,VALID,0.0,
2019-04-24, 00:05:06,VALID,917.363,VALID,0.0,VALID,99.426,VALID,-0.014,VALID,20.802,VALID,80.0,VALID,0.0,
2019-04-24, 00:06:06,VALID,917.375,VALID,0.0,VALID,99.415,VALID,-0.019,VALID,20.807,VALID,88.0,VALID,0.0,
2019-04-24, 00:07:06,VALID,917.359,VALID,0.0,VALID,99.415,VALID,-0.021,VALID,20.807,VALID,90.0,VALID,0.0,
2019-04-24, 00:08:06,VALID,917.343,VALID,0.0,VALID,99.391,VALID,-0.023,VALID,20.807,VALID,101.0,VALID,0.0,
2019-04-24, 00:09:06,VALID,917.318,VALID,0.0,VALID,99.393,VALID,-0.019,VALID,20.805,VALID,111.0,VALID,0.0,
2019-04-24, 00:10:06,VALID,917.322,VALID,0.0,VALID,99.381,VALID,-0.027,VALID,20.815,VALID,120.0,VALID,0.0,
2019-04-24, 00:11:06,VALID,917.297,VALID,0.0,VALID,99.38,VALID,-0.03,VALID,20.828,VALID,120.0,VALID,0.0,
2019-04-24, 00:12:06,VALID,917.293,VALID,0.2,VALID,99.368,VALID,-0.04,VALID,20.838,VALID,126.0,VALID,0.0,
2019-04-24, 00:13:06,VALID,917.279,VALID,0.0,VALID,99.337,VALID,-0.024,VALID,20.832,VALID,123.0,VALID,0.0,
2019-04-24, 00:14:06,VALID,917.241,VALID,0.0,VALID,99.338,VALID,-0.029,VALID,20.831,VALID,125.0,VALID,0.0,
2019-04-24, 00:15:06,VALID,917.227,VALID,0.0,VALID,99.326,VALID,0.004,VALID,20.825,VALID,119.0,VALID,0.0,
2019-04-24, 00:16:06,VALID,917.222,VALID,0.0,VALID,99.326,VALID,-0.003,VALID,20.82,VALID,127.0,VALID,0.0,
2019-04-24, 00:17:06,VALID,917.193,VALID,0.0,VALID,99.287,VALID,-0.001,VALID,20.816,VALID,126.0,VALID,0.0,
2019-04-24, 00:18:06,VALID,917.179,VALID,0.0,VALID,99.295,VALID,0.01,VALID,20.825,VALID,119.0,VALID,0.0,
2019-04-24, 00:19:06,VALID,917.148,VALID,0.0,VALID,99.291,VALID,0.015,VALID,20.803,VALID,110.0,VALID,0.0,
2019-04-24, 00:20:06,VALID,917.155,VALID,0.0,VALID,99.286,VALID,0.004,VALID,20.801,VALID,120.0,VALID,0.0,
2019-04-24, 00:21:06,VALID,917.121,VALID,0.0,VALID,99.272,VALID,-0.009,VALID,20.79,VALID,110.0,VALID,0.0,
2019-04-24, 00:22:06,VALID,917.129,VALID,0.0,VALID,99.271,VALID,0.015,VALID,20.786,VALID,116.0,VALID,0.0,
2019-04-24, 00:23:06,VALID,917.106,VALID,0.0,VALID,99.282,VALID,0.015,VALID,20.791,VALID,111.0,VALID,0.0,
2019-04-24, 00:24:06,VALID,917.098,VALID,0.0,VALID,99.278,VALID,-0.002,VALID,20.783,VALID,107.0,VALID,0.0,
2019-04-24, 00:25:06,VALID,917.108,VALID,0.0,VALID,99.277,VALID,0.01,VALID,20.775,VALID,105.0,VALID,0.0,
2019-04-24, 00:26:06,VALID,917.097,VALID,0.0,VALID,99.277,VALID,0.023,VALID,20.766,VALID,108.0,VALID,0.0,
2019-04-24, 00:27:06,VALID,917.078,VALID,0.0,VALID,99.307,VALID,0.003,VALID,20.766,VALID,109.0,VALID,0.0,
2019-04-24, 00:28:06,VALID,917.063,VALID,0.0,VALID,99.299,VALID,0.026,VALID,20.766,VALID,96.0,VALID,0.0,
2019-04-24, 00:29:06,VALID,917.046,VALID,0.0,VALID,99.305,VALID,0.025,VALID,20.758,VALID,103.0,VALID,0.0,
2019-04-24, 00:30:06,VALID,917.047,VALID,0.0,VALID,99.308,VALID,-0.014,VALID,20.753,VALID,106.0,VALID,0.0,
2019-04-24, 00:31:06,VALID,917.026,VALID,0.0,VALID,99.327,VALID,-0.014,VALID,20.758,VALID,104.0,VALID,0.0,
2019-04-24, 00:32:06,VALID,917.018,VALID,0.0,VALID,99.33,VALID,-0.019,VALID,20.763,VALID,101.0,VALID,0.0,
2019-04-24, 00:33:06,VALID,917.028,VALID,0.0,VALID,99.325,VALID,-0.018,VALID,20.765,VALID,106.0,VALID,0.0,
2019-04-24, 00:34:06,VALID,917.021,VALID,0.0,VALID,99.337,VALID,-0.012,VALID,20.759,VALID,109.0,VALID,0.0,
2019-04-24, 00:35:06,VALID,917.018,VALID,0.0,VALID,99.348,VALID,-0.015,VALID,20.764,VALID,108.0,VALID,0.0,
2019-04-24, 00:36:06,VALID,916.993,VALID,0.0,VALID,99.33,VALID,-0.016,VALID,20.752,VALID,101.0,VALID,0.0,
2019-04-24, 00:37:06,VALID,916.988,VALID,0.0,VALID,99.363,VALID,-0.028,VALID,20.747,VALID,107.0,VALID,0.0,
2019-04-24, 00:38:06,VALID,916.968,VALID,0.0,VALID,99.335,VALID,-0.041,VALID,20.743,VALID,110.0,VALID,0.0,
2019-04-24, 00:39:06,VALID,916.947,VALID,0.0,VALID,99.342,VALID,-0.025,VALID,20.733,VALID,115.0,VALID,0.0,
2019-04-24, 00:40:06,VALID,916.944,VALID,0.0,VALID,99.376,VALID,-0.024,VALID,20.747,VALID,123.0,VALID,0.0,
2019-04-24, 00:41:06,VALID,916.927,VALID,0.0,VALID,99.379,VALID,-0.034,VALID,20.779,VALID,117.0,VALID,0.0,
2019-04-24, 00:42:06,VALID,916.909,VALID,0.0,VALID,99.381,VALID,-0.039,VALID,20.791,VALID,114.0,VALID,0.0,
2019-04-24, 00:43:06,VALID,916.886,VALID,0.0,VALID,99.38,VALID,-0.036,VALID,20.782,INVALID,360.0,VALID,0.0,
2019-04-24, 00:44:06,VALID,916.879,VALID,0.0,VALID,99.369,VALID,-0.028,VALID,20.772,VALID,138.0,VALID,0.0,
2019-04-24, 00:45:06,VALID,916.871,VALID,0.0,VALID,99.379,VALID,-0.009,VALID,20.761,VALID,134.0,VALID,0.0,
2019-04-24, 00:46:06,VALID,916.856,VALID,0.0,VALID,99.376,VALID,-0.018,VALID,20.75,VALID,122.0,VALID,0.0,
2019-04-24, 00:47:06,VALID,916.853,VALID,0.0,VALID,99.379,VALID,0.001,VALID,20.749,VALID,123.0,VALID,0.0,
2019-04-24, 00:48:06,VALID,916.842,VALID,0.2,VALID,99.386,VALID,-0.011,VALID,20.746,INVALID,360.0,VALID,0.0,
2019-04-24, 00:49:06,VALID,916.836,VALID,0.0,VALID,99.387,VALID,-0.015,VALID,20.748,VALID,128.0,VALID,0.0,
2019-04-24, 00:50:06,VALID,916.82,VALID,0.0,VALID,99.375,VALID,-0.009,VALID,20.748,VALID,117.0,VALID,0.0,
2019-04-24, 00:51:06,VALID,916.809,VALID,0.0,VALID,99.364,VALID,-0.011,VALID,20.74,VALID,126.0,VALID,0.0,
2019-04-24, 00:52:06,VALID,916.775,VALID,0.0,VALID,99.375,VALID,0.007,VALID,20.727,VALID,116.0,VALID,0.093,
2019-04-24, 00:53:06,VALID,916.751,VALID,0.0,VALID,99.385,VALID,-0.007,VALID,20.734,VALID,144.0,VALID,0.533,
2019-04-24, 00:54:06,VALID,916.733,VALID,0.0,VALID,99.387,VALID,-0.01,VALID,20.734,VALID,116.0,VALID,0.379,
2019-04-24, 00:55:06,VALID,916.708,VALID,0.0,VALID,99.397,VALID,-0.003,VALID,20.732,VALID,134.0,VALID,0.227,
2019-04-24, 00:56:06,VALID,916.715,VALID,0.0,VALID,99.367,VALID,0.002,VALID,20.722,VALID,130.0,VALID,0.0,
2019-04-24, 00:57:06,VALID,916.686,VALID,0.0,VALID,99.381,VALID,-0.005,VALID,20.718,VALID,125.0,VALID,0.0,
2019-04-24, 00:58:06,VALID,916.657,VALID,0.0,VALID,99.362,VALID,0.001,VALID,20.714,VALID,119.0,VALID,0.33,
2019-04-24, 00:59:06,VALID,916.675,VALID,0.0,VALID,99.38,VALID,-0.007,VALID,20.707,VALID,108.0,VALID,0.108,
2019-04-24, 01:00:06,VALID,916.668,VALID,0.0,VALID,99.37,VALID,-0.004,VALID,20.709,VALID,135.0,VALID,0.534,
2019-04-24, 01:01:06,VALID,916.649,VALID,0.0,VALID,99.403,VALID,-0.017,VALID,20.702,VALID,126.0,VALID,0.175,
2019-04-24, 01:02:06,VALID,916.633,VALID,0.0,VALID,99.392,VALID,-0.016,VALID,20.697,VALID,124.0,VALID,0.0,
2019-04-24, 01:03:06,VALID,916.633,VALID,0.0,VALID,99.39,VALID,-0.006,VALID,20.695,VALID,126.0,VALID,0.0,
2019-04-24, 01:04:06,VALID,916.618,VALID,0.0,VALID,99.4,VALID,-0.008,VALID,20.692,VALID,121.0,VALID,0.0,
2019-04-24, 01:05:06,VALID,916.591,VALID,0.0,VALID,99.376,VALID,-0.011,VALID,20.691,VALID,124.0,VALID,0.0,
2019-04-24, 01:06:06,VALID,916.589,VALID,0.0,VALID,99.403,VALID,-0.002,VALID,20.694,VALID,128.0,VALID,0.0,
2019-04-24, 01:07:06,VALID,916.568,VALID,0.0,VALID,99.401,VALID,-0.018,VALID,20.708,VALID,124.0,VALID,0.0,
2019-04-24, 01:08:06,VALID,916.55,VALID,0.0,VALID,99.409,VALID,-0.019,VALID,20.713,VALID,126.0,VALID,0.009,
2019-04-24, 01:09:06,VALID,916.528,VALID,0.0,VALID,99.401,VALID,-0.014,VALID,20.719,VALID,123.0,VALID,0.021,
2019-04-24, 01:10:06,VALID,916.539,VALID,0.0,VALID,99.406,VALID,-0.011,VALID,20.722,VALID,128.0,VALID,0.0,
2019-04-24, 01:11:06,VALID,916.51,VALID,0.0,VALID,99.419,VALID,-0.009,VALID,20.731,VALID,126.0,VALID,0.0,
2019-04-24, 01:12:06,VALID,916.491,VALID,0.0,VALID,99.418,VALID,-0.011,VALID,20.722,VALID,129.0,VALID,0.0,
2019-04-24, 01:13:06,VALID,916.492,VALID,0.0,VALID,99.395,VALID,-0.014,VALID,20.732,VALID,110.0,VALID,0.0,
2019-04-24, 01:14:06,VALID,916.477,VALID,0.0,VALID,99.414,VALID,-0.007,VALID,20.738,VALID,137.0,VALID,0.0,
2019-04-24, 01:15:06,VALID,916.487,VALID,0.0,VALID,99.393,VALID,-0.007,VALID,20.729,VALID,125.0,VALID,0.045,
2019-04-24, 01:16:06,VALID,916.481,VALID,0.0,VALID,99.387,VALID,0.004,VALID,20.73,VALID,151.0,VALID,0.211,
2019-04-24, 01:17:06,VALID,916.483,VALID,0.0,VALID,99.392,VALID,-0.01,VALID,20.728,VALID,129.0,VALID,0.0,
2019-04-24, 01:18:06,VALID,916.483,VALID,0.0,VALID,99.385,VALID,-0.013,VALID,20.718,VALID,111.0,VALID,0.0,
2019-04-24, 01:19:06,VALID,916.481,VALID,0.0,VALID,99.349,VALID,0.002,VALID,20.704,VALID,114.0,VALID,0.0,
2019-04-24, 01:20:06,VALID,916.471,VALID,0.0,VALID,99.36,VALID,-0.013,VALID,20.704,VALID,129.0,VALID,0.564,
2019-04-24, 01:21:06,VALID,916.468,VALID,0.0,VALID,99.335,VALID,-0.008,VALID,20.698,VALID,127.0,VALID,0.443,
2019-04-24, 01:22:06,VALID,916.458,VALID,0.0,VALID,99.32,VALID,-0.009,VALID,20.698,VALID,123.0,VALID,0.633,
2019-04-24, 01:23:06,VALID,916.449,VALID,0.0,VALID,99.326,VALID,-0.004,VALID,20.702,VALID,126.0,VALID,0.343,
2019-04-24, 01:24:06,VALID,916.435,VALID,0.0,VALID,99.289,VALID,-0.019,VALID,20.697,VALID,124.0,VALID,0.795,
2019-04-24, 01:25:06,VALID,916.44,VALID,0.0,VALID,99.293,VALID,-0.02,VALID,20.69,VALID,121.0,VALID,0.881,
2019-04-24, 01:26:06,VALID,916.435,VALID,0.0,VALID,99.262,VALID,-0.021,VALID,20.674,VALID,115.0,VALID,0.892,
2019-04-24, 01:27:06,VALID,916.402,VALID,0.0,VALID,99.251,VALID,-0.012,VALID,20.664,VALID,115.0,VALID,1.015,
2019-04-24, 01:28:06,VALID,916.388,VALID,0.0,VALID,99.229,VALID,0.006,VALID,20.654,VALID,117.0,VALID,0.967,
2019-04-24, 01:29:06,VALID,916.39,VALID,0.0,VALID,99.205,VALID,-0.005,VALID,20.666,VALID,118.0,VALID,1.407,
2019-04-24, 01:30:06,VALID,916.378,VALID,0.0,VALID,99.191,VALID,0.001,VALID,20.689,VALID,121.0,VALID,1.255,
2019-04-24, 01:31:06,VALID,916.363,VALID,0.0,VALID,99.158,VALID,0.001,VALID,20.702,VALID,112.0,VALID,1.307,
2019-04-24, 01:32:06,VALID,916.344,VALID,0.0,VALID,99.107,VALID,-0.019,VALID,20.716,VALID,113.0,VALID,1.766,
2019-04-24, 01:33:06,VALID,916.313,VALID,0.0,VALID,99.076,VALID,0.004,VALID,20.73,VALID,118.0,VALID,1.178,
2019-04-24, 01:34:06,VALID,916.316,VALID,0.0,VALID,98.994,VALID,-0.003,VALID,20.717,VALID,117.0,VALID,0.78,
2019-04-24, 01:35:06,VALID,916.281,VALID,0.0,VALID,98.93,VALID,-0.011,VALID,20.697,VALID,111.0,VALID,0.0,
2019-04-24, 01:36:06,VALID,916.269,VALID,0.0,VALID,98.877,VALID,0.004,VALID,20.682,VALID,103.0,VALID,0.0,
2019-04-24, 01:37:06,VALID,916.256,VALID,0.0,VALID,98.832,VALID,-0.004,VALID,20.667,VALID,97.0,VALID,0.0,
2019-04-24, 01:38:06,VALID,916.242,VALID,0.0,VALID,98.807,VALID,0.005,VALID,20.656,VALID,93.0,VALID,0.0,
2019-04-24, 01:39:06,VALID,916.216,VALID,0.0,VALID,98.776,VALID,0.009,VALID,20.643,VALID,93.0,VALID,0.0,
2019-04-24, 01:40:06,VALID,916.222,VALID,0.0,VALID,98.776,VALID,-0.005,VALID,20.636,VALID,89.0,VALID,0.0,
2019-04-24, 01:41:06,VALID,916.2,VALID,0.0,VALID,98.761,VALID,-0.017,VALID,20.627,VALID,91.0,VALID,0.0,
2019-04-24, 01:42:06,VALID,916.17,VALID,0.0,VALID,98.779,VALID,0.01,VALID,20.619,VALID,98.0,VALID,0.0,
2019-04-24, 01:43:06,VALID,916.141,VALID,0.0,VALID,98.784,VALID,-0.013,VALID,20.609,VALID,106.0,VALID,0.0,
2019-04-24, 01:44:06,VALID,916.112,VALID,0.0,VALID,98.809,VALID,-0.011,VALID,20.605,VALID,102.0,VALID,0.0,
2019-04-24, 01:45:06,VALID,916.094,VALID,0.0,VALID,98.797,VALID,-0.001,VALID,20.579,VALID,104.0,VALID,0.0,
2019-04-24, 01:46:06,VALID,916.083,VALID,0.0,VALID,98.85,VALID,-0.001,VALID,20.585,VALID,109.0,VALID,0.0,
2019-04-24, 01:47:06,VALID,916.063,VALID,0.0,VALID,98.89,VALID,0.002,VALID,20.592,VALID,112.0,VALID,0.0,
2019-04-24, 01:48:06,VALID,916.065,VALID,0.0,VALID,98.939,VALID,0.012,VALID,20.595,VALID,118.0,VALID,0.0,
2019-04-24, 01:49:06,VALID,916.058,VALID,0.0,VALID,98.967,VALID,0.002,VALID,20.578,VALID,119.0,VALID,0.0,
2019-04-24, 01:50:06,VALID,916.063,VALID,0.0,VALID,99.002,VALID,-0.002,VALID,20.577,VALID,115.0,VALID,0.634,
2019-04-24, 01:51:06,VALID,916.051,VALID,0.0,VALID,99.037,VALID,0.015,VALID,20.574,VALID,109.0,VALID,1.004,
2019-04-24, 01:52:06,VALID,916.024,VALID,0.0,VALID,99.08,VALID,0.01,VALID,20.565,VALID,123.0,VALID,0.811,
2019-04-24, 01:53:06,VALID,916.02,VALID,0.0,VALID,99.102,VALID,0.011,VALID,20.568,VALID,121.0,VALID,0.445,
2019-04-24, 01:54:06,VALID,916.016,VALID,0.0,VALID,99.132,VALID,0.008,VALID,20.56,VALID,121.0,VALID,0.601,
2019-04-24, 01:55:06,VALID,915.993,VALID,0.0,VALID,99.155,VALID,0.016,VALID,20.55,VALID,111.0,VALID,0.452,
2019-04-24, 01:56:06,VALID,915.962,VALID,0.0,VALID,99.181,VALID,0.022,VALID,20.537,VALID,112.0,VALID,0.641,
2019-04-24, 01:57:06,VALID,915.951,VALID,0.0,VALID,99.179,VALID,0.018,VALID,20.521,VALID,115.0,VALID,0.571,
2019-04-24, 01:58:06,VALID,915.951,VALID,0.0,VALID,99.21,VALID,0.011,VALID,20.513,VALID,110.0,VALID,0.486,
2019-04-24, 01:59:06,VALID,915.933,VALID,0.0,VALID,99.239,VALID,0.009,VALID,20.514,VALID,118.0,VALID,0.717,
2019-04-24, 02:00:06,VALID,915.946,VALID,0.0,VALID,99.237,VALID,0.009,VALID,20.514,VALID,113.0,VALID,0.697,
2019-04-24, 02:01:06,VALID,915.929,VALID,0.0,VALID,99.263,VALID,0.015,VALID,20.517,VALID,128.0,VALID,0.018,
2019-04-24, 02:02:06,VALID,915.918,VALID,0.0,VALID,99.278,VALID,-0.001,VALID,20.525,VALID,120.0,VALID,0.0,
2019-04-24, 02:03:06,VALID,915.925,VALID,0.0,VALID,99.289,VALID,0.001,VALID,20.53,VALID,118.0,VALID,0.0,
2019-04-24, 02:04:06,VALID,915.906,VALID,0.0,VALID,99.291,VALID,0.017,VALID,20.512,VALID,112.0,VALID,0.0,
2019-04-24, 02:05:06,VALID,915.902,VALID,0.0,VALID,99.303,VALID,0.004,VALID,20.507,VALID,124.0,VALID,0.0,
2019-04-24, 02:06:06,VALID,915.905,VALID,0.0,VALID,99.317,VALID,0.01,VALID,20.524,INVALID,360.0,VALID,0.0,
2019-04-24, 02:07:06,VALID,915.902,VALID,0.0,VALID,99.336,VALID,0.018,VALID,20.522,INVALID,360.0,VALID,0.0,
2019-04-24, 02:08:06,VALID,915.909,VALID,0.0,VALID,99.333,VALID,0.011,VALID,20.511,INVALID,360.0,VALID,0.0,
2019-04-24, 02:09:06,VALID,915.911,VALID,0.0,VALID,99.341,VALID,0.013,VALID,20.502,INVALID,360.0,VALID,0.0,
2019-04-24, 02:10:06,VALID,915.886,VALID,0.0,VALID,99.345,VALID,0.011,VALID,20.497,INVALID,360.0,VALID,0.0,
2019-04-24, 02:11:06,VALID,915.881,VALID,0.0,VALID,99.37,VALID,0.013,VALID,20.483,VALID,146.0,VALID,0.0,
2019-04-24, 02:12:06,VALID,915.888,VALID,0.0,VALID,99.367,VALID,0.024,VALID,20.474,VALID,131.0,VALID,0.0,
2019-04-24, 02:13:06,VALID,915.873,VALID,0.0,VALID,99.38,VALID,0.022,VALID,20.463,VALID,116.0,VALID,0.0,
2019-04-24, 02:14:06,VALID,915.852,VALID,0.0,VALID,99.373,VALID,0.023,VALID,20.451,VALID,122.0,VALID,0.0,
2019-04-24, 02:15:06,VALID,915.848,VALID,0.0,VALID,99.401,VALID,0.017,VALID,20.458,VALID,122.0,VALID,0.0,
2019-04-24, 02:16:06,VALID,915.837,VALID,0.0,VALID,99.392,VALID,0.019,VALID,20.455,VALID,108.0,VALID,0.0,
2019-04-24, 02:17:06,VALID,915.844,VALID,0.0,VALID,99.4,VALID,0.028,VALID,20.452,VALID,116.0,VALID,0.0,
2019-04-24, 02:18:06,VALID,915.855,VALID,0.0,VALID,99.41,VALID,0.024,VALID,20.434,VALID,120.0,VALID,0.0,
2019-04-24, 02:19:06,VALID,915.843,VALID,0.0,VALID,99.405,VALID,0.028,VALID,20.432,VALID,125.0,VALID,0.0,
2019-04-24, 02:20:06,VALID,915.841,VALID,0.0,VALID,99.409,VALID,0.002,VALID,20.435,VALID,135.0,VALID,0.0,
2019-04-24, 02:21:06,VALID,915.844,VALID,0.0,VALID,99.421,VALID,0.011,VALID,20.433,VALID,109.0,VALID,0.0,
2019-04-24, 02:22:06,VALID,915.869,VALID,0.0,VALID,99.406,VALID,0.004,VALID,20.441,VALID,119.0,VALID,0.0,
2019-04-24, 02:23:06,VALID,915.869,VALID,0.0,VALID,99.433,VALID,0.032,VALID,20.434,VALID,131.0,VALID,0.0,
2019-04-24, 02:24:06,VALID,915.872,VALID,0.0,VALID,99.42,VALID,0.022,VALID,20.419,VALID,130.0,VALID,0.0,
2019-04-24, 02:25:06,VALID,915.857,VALID,0.0,VALID,99.422,VALID,0.011,VALID,20.418,VALID,119.0,VALID,0.0,
2019-04-24, 02:26:06,VALID,915.852,VALID,0.0,VALID,99.439,VALID,0.007,VALID,20.421,VALID,109.0,VALID,0.0,
2019-04-24, 02:27:06,VALID,915.854,VALID,0.0,VALID,99.455,VALID,0.016,VALID,20.417,VALID,109.0,VALID,0.0,
2019-04-24, 02:28:06,VALID,915.837,VALID,0.0,VALID,99.446,VALID,0.029,VALID,20.403,VALID,107.0,VALID,0.0,
2019-04-24, 02:29:06,VALID,915.82,VALID,0.0,VALID,99.444,VALID,0.029,VALID,20.397,VALID,107.0,VALID,0.0,
2019-04-24, 02:30:06,VALID,915.823,VALID,0.0,VALID,99.448,VALID,-0.005,VALID,20.393,VALID,102.0,VALID,0.0,
2019-04-24, 02:31:06,VALID,915.813,VALID,0.0,VALID,99.463,VALID,-0.01,VALID,20.392,VALID,99.0,VALID,0.0,
2019-04-24, 02:32:06,VALID,915.796,VALID,0.0,VALID,99.441,VALID,-0.025,VALID,20.362,VALID,99.0,VALID,0.0,
2019-04-24, 02:33:06,VALID,915.796,VALID,0.0,VALID,99.446,VALID,-0.047,VALID,20.325,VALID,85.0,VALID,0.0,
2019-04-24, 02:34:06,VALID,915.779,VALID,0.0,VALID,99.438,VALID,-0.02,VALID,20.242,INVALID,360.0,VALID,0.0,
2019-04-24, 02:35:06,VALID,915.773,VALID,0.0,VALID,99.406,VALID,-0.032,VALID,20.206,INVALID,360.0,VALID,0.0,
2019-04-24, 02:36:06,VALID,915.771,VALID,0.0,VALID,99.434,VALID,-0.019,VALID,20.213,INVALID,360.0,VALID,0.0,
2019-04-24, 02:37:06,VALID,915.782,VALID,0.0,VALID,99.427,VALID,-0.014,VALID,20.202,INVALID,360.0,VALID,0.0,
2019-04-24, 02:38:06,VALID,915.756,VALID,0.0,VALID,99.422,VALID,-0.033,VALID,20.192,VALID,47.0,VALID,0.0,
2019-04-24, 02:39:06,VALID,915.751,VALID,0.0,VALID,99.431,VALID,-0.034,VALID,20.172,INVALID,360.0,VALID,0.0,
2019-04-24, 02:40:06,VALID,915.746,VALID,0.0,VALID,99.43,VALID,-0.021,VALID,20.179,INVALID,360.0,VALID,0.0,
2019-04-24, 02:41:06,VALID,915.725,VALID,0.0,VALID,99.436,VALID,-0.014,VALID,20.157,INVALID,360.0,VALID,0.0,
2019-04-24, 02:42:06,VALID,915.723,VALID,0.0,VALID,99.432,VALID,-0.018,VALID,20.149,INVALID,360.0,VALID,0.0,
2019-04-24, 02:43:06,VALID,915.7,VALID,0.0,VALID,99.428,VALID,-0.028,VALID,20.163,VALID,69.0,VALID,0.0,
2019-04-24, 02:44:06,VALID,915.708,VALID,0.0,VALID,99.47,VALID,-0.035,VALID,20.213,VALID,70.0,VALID,0.0,
2019-04-24, 02:45:06,VALID,915.683,VALID,0.0,VALID,99.467,VALID,0.014,VALID,20.225,VALID,79.0,VALID,0.0,
2019-04-24, 02:46:06,VALID,915.688,VALID,0.0,VALID,99.468,VALID,0.013,VALID,20.196,VALID,86.0,VALID,0.0,
2019-04-24, 02:47:06,VALID,915.668,VALID,0.0,VALID,99.464,VALID,0.03,VALID,20.196,VALID,84.0,VALID,0.0,
2019-04-24, 02:48:06,VALID,915.653,VALID,0.0,VALID,99.459,VALID,0.02,VALID,20.191,VALID,100.0,VALID,0.0,
2019-04-24, 02:49:06,VALID,915.667,VALID,0.0,VALID,99.46,VALID,0.015,VALID,20.201,VALID,105.0,VALID,0.0,
2019-04-24, 02:50:06,VALID,915.645,VALID,0.0,VALID,99.467,VALID,0.031,VALID,20.194,VALID,99.0,VALID,0.0,
2019-04-24, 02:51:06,VALID,915.652,VALID,0.0,VALID,99.464,VALID,0.026,VALID,20.199,VALID,94.0,VALID,0.0,
2019-04-24, 02:52:06,VALID,915.645,VALID,0.0,VALID,99.481,VALID,0.028,VALID,20.205,VALID,94.0,VALID,0.0,
2019-04-24, 02:53:06,VALID,915.66,VALID,0.0,VALID,99.471,VALID,0.027,VALID,20.182,VALID,101.0,VALID,0.0,
2019-04-24, 02:54:06,VALID,915.647,VALID,0.0,VALID,99.456,VALID,0.005,VALID,20.166,VALID,107.0,VALID,0.0,
2019-04-24, 02:55:06,VALID,915.655,VALID,0.0,VALID,99.474,VALID,0.03,VALID,20.171,VALID,104.0,VALID,0.0,
2019-04-24, 02:56:06,VALID,915.665,VALID,0.0,VALID,99.465,VALID,0.039,VALID,20.158,VALID,106.0,VALID,0.0,
2019-04-24, 02:57:06,VALID,915.661,VALID,0.0,VALID,99.474,VALID,0.045,VALID,20.157,VALID,109.0,VALID,0.0,
2019-04-24, 02:58:06,VALID,915.675,VALID,0.0,VALID,99.482,VALID,0.041,VALID,20.163,VALID,108.0,VALID,1.184,
2019-04-24, 02:59:06,VALID,915.653,VALID,0.0,VALID,99.481,VALID,0.029,VALID,20.173,VALID,118.0,VALID,1.298,
2019-04-24, 03:00:06,VALID,915.658,VALID,0.0,VALID,99.49,VALID,-0.007,VALID,20.186,VALID,120.0,VALID,1.332,
2019-04-24, 03:01:06,VALID,915.661,VALID,0.0,VALID,99.491,VALID,-0.013,VALID,20.182,VALID,112.0,VALID,1.034,
2019-04-24, 03:02:06,VALID,915.633,VALID,0.0,VALID,99.49,VALID,-0.011,VALID,20.175,VALID,108.0,VALID,1.179,
2019-04-24, 03:03:06,VALID,915.653,VALID,0.0,VALID,99.479,VALID,-0.001,VALID,20.161,VALID,112.0,VALID,1.437,
2019-04-24, 03:04:06,VALID,915.634,VALID,0.0,VALID,99.485,VALID,-0.021,VALID,20.145,VALID,109.0,VALID,1.668,
2019-04-24, 03:05:06,VALID,915.625,VALID,0.0,VALID,99.492,VALID,-0.017,VALID,20.159,VALID,109.0,VALID,1.6,
2019-04-24, 03:06:06,VALID,915.619,VALID,0.0,VALID,99.5,VALID,-0.017,VALID,20.158,VALID,103.0,VALID,1.689,
2019-04-24, 03:07:06,VALID,915.612,VALID,0.0,VALID,99.507,VALID,-0.002,VALID,20.152,VALID,103.0,VALID,1.618,
2019-04-24, 03:08:06,VALID,915.602,VALID,0.0,VALID,99.507,VALID,-0.02,VALID,20.141,VALID,104.0,VALID,1.586,
2019-04-24, 03:09:06,VALID,915.603,VALID,0.0,VALID,99.504,VALID,-0.006,VALID,20.143,VALID,108.0,VALID,1.602,
2019-04-24, 03:10:06,VALID,915.582,VALID,0.0,VALID,99.493,VALID,-0.013,VALID,20.14,VALID,107.0,VALID,1.489,
2019-04-24, 03:11:06,VALID,915.585,VALID,0.0,VALID,99.5,VALID,-0.009,VALID,20.132,VALID,109.0,VALID,1.567,
2019-04-24, 03:12:06,VALID,915.577,VALID,0.0,VALID,99.521,VALID,-0.024,VALID,20.109,VALID,108.0,VALID,1.157,
2019-04-24, 03:13:06,VALID,915.547,VALID,0.0,VALID,99.51,VALID,-0.024,VALID,20.083,VALID,105.0,VALID,1.027,
2019-04-24, 03:14:06,VALID,915.555,VALID,0.0,VALID,99.507,VALID,-0.021,VALID,20.073,VALID,109.0,VALID,1.145,
2019-04-24, 03:15:06,VALID,915.544,VALID,0.0,VALID,99.512,VALID,-0.004,VALID,20.049,VALID,111.0,VALID,1.175,
2019-04-24, 03:16:06,VALID,915.531,VALID,0.0,VALID,99.499,VALID,-0.003,VALID,20.043,VALID,105.0,VALID,1.056,
2019-04-24, 03:17:06,VALID,915.518,VALID,0.0,VALID,99.511,VALID,0.003,VALID,20.039,VALID,97.0,VALID,1.036,
2019-04-24, 03:18:06,VALID,915.515,VALID,0.0,VALID,99.527,VALID,-0.008,VALID,20.028,VALID,97.0,VALID,1.281,
2019-04-24, 03:19:06,VALID,915.512,VALID,0.0,VALID,99.512,VALID,0.004,VALID,20.018,VALID,91.0,VALID,1.37,
2019-04-24, 03:20:06,VALID,915.531,VALID,0.0,VALID,99.518,VALID,-0.01,VALID,20.017,VALID,90.0,VALID,1.291,
2019-04-24, 03:21:06,VALID,915.53,VALID,0.0,VALID,99.51,VALID,-0.008,VALID,20.016,VALID,86.0,VALID,1.472,
2019-04-24, 03:22:06,VALID,915.531,VALID,0.0,VALID,99.527,VALID,-0.01,VALID,20.019,VALID,85.0,VALID,1.389,
2019-04-24, 03:23:06,VALID,915.531,VALID,0.0,VALID,99.522,VALID,-0.012,VALID,20.019,VALID,89.0,VALID,1.518,
2019-04-24, 03:24:06,VALID,915.539,VALID,0.0,VALID,99.534,VALID,-0.014,VALID,20.015,VALID,90.0,VALID,1.364,
2019-04-24, 03:25:06,VALID,915.521,VALID,0.0,VALID,99.531,VALID,-0.024,VALID,20.018,VALID,84.0,VALID,1.539,
2019-04-24, 03:26:06,VALID,915.513,VALID,0.0,VALID,99.521,VALID,-0.016,VALID,20.008,VALID,89.0,VALID,1.324,
2019-04-24, 03:27:06,VALID,915.505,VALID,0.0,VALID,99.512,VALID,-0.009,VALID,20.01,VALID,84.0,VALID,1.229,
2019-04-24, 03:28:06,VALID,915.498,VALID,0.0,VALID,99.521,VALID,-0.015,VALID,20.013,VALID,87.0,VALID,1.106,
2019-04-24, 03:29:06,VALID,915.497,VALID,0.0,VALID,99.506,VALID,0.003,VALID,20.004,VALID,89.0,VALID,1.082,
2019-04-24, 03:30:06,VALID,915.486,VALID,0.0,VALID,99.517,VALID,-0.003,VALID,19.994,VALID,91.0,VALID,1.134,
2019-04-24, 03:31:06,VALID,915.484,VALID,0.0,VALID,99.511,VALID,0.005,VALID,20.006,VALID,84.0,VALID,0.647,
2019-04-24, 03:32:06,VALID,915.474,VALID,0.0,VALID,99.505,VALID,0.011,VALID,20.002,VALID,89.0,VALID,0.553,
2019-04-24, 03:33:06,VALID,915.485,VALID,0.0,VALID,99.502,VALID,0.014,VALID,19.999,VALID,94.0,VALID,0.277,
2019-04-24, 03:34:06,VALID,915.479,VALID,0.0,VALID,99.485,VALID,0.004,VALID,19.981,VALID,100.0,VALID,0.275,
2019-04-24, 03:35:06,VALID,915.475,VALID,0.0,VALID,99.467,VALID,0.006,VALID,19.971,VALID,97.0,VALID,0.46,
2019-04-24, 03:36:06,VALID,915.48,VALID,0.0,VALID,99.451,VALID,-0.011,VALID,19.967,VALID,101.0,VALID,0.611,
2019-04-24, 03:37:06,VALID,915.477,VALID,0.0,VALID,99.469,VALID,0.002,VALID,19.967,VALID,109.0,VALID,0.439,
2019-04-24, 03:38:06,VALID,915.477,VALID,0.0,VALID,99.469,VALID,0.007,VALID,19.964,VALID,103.0,VALID,0.0,
2019-04-24, 03:39:06,VALID,915.472,VALID,0.0,VALID,99.451,VALID,0.011,VALID,19.972,VALID,100.0,VALID,0.0,
2019-04-24, 03:40:06,VALID,915.458,VALID,0.0,VALID,99.461,VALID,0.001,VALID,19.98,VALID,94.0,VALID,0.0,